[[{"header":{"parameterUnit":"m.s-1","parameterCategory":1,"la1":30.2991,"la2":30.254,"lo1":-89.0895,"lo2":-89.0444,"dy":0.0017,"dx":0.0017,"nx":28,"ny":28,"refTime":"2024-09-27T03:00:00:Z","depth":0,"parameterNumber":2,"parameterNumberName":"U-component_of_WINDS"},"data":[0,0,0,0,0,0,0,0,0,0,0,0,0,0,0,0,0,0,0,0,0,0,0,0,0,0,0,0,0,0,0,0,0,0,0,0,0,0,0,0,0,0,0,0,0,0,0,0,0,0,0,0,0,0,0,0,0,0,6.3188,6.319,0,6.3428,6.3431,6.3434,6.3371,6.3366,6.3362,6.3357,6.3606,6.3617,6.3628,0,0,0,0,0,0,0,0,0,0,0,0,0,6.2674,6.2684,6.3188,6.3191,6.3194,6.3428,6.3431,6.3434,6.3372,6.3366,6.336,6.3355,6.3603,6.3616,6.3629,0,0,0,0,0,0,0,0,0,0,0,0,0,6.2904,6.2687,6.3187,6.3191,6.3193,6.3427,6.3431,6.3435,6.3373,6.3366,6.3359,6.3352,6.3598,6.3614,6.3631,6.3876,0,0,6.3681,6.3689,0,0,0,0,0,0,0,0,6.2891,6.2923,6.3187,6.3191,6.3194,6.3362,6.3341,6.3583,6.3375,6.3305,6.3357,6.3349,6.3531,6.3553,6.3614,6.3888,6.3899,6.3683,6.3693,6.37,6.3705,0,0,0,0,0,0,0,6.2875,6.2913,6.3283,6.3191,6.3196,6.318,6.3205,6.3387,6.3455,6.3311,6.3307,6.3336,6.3532,6.3598,6.3619,6.3902,6.3682,6.3697,6.3707,6.3714,6.4384,6.4392,0,0,0,0,0,0,6.2857,6.29,6.3275,6.329,6.3022,6.3195,6.3223,6.3316,6.3453,6.3467,6.3342,6.3332,6.3573,6.36,6.3627,6.3919,6.37,6.3716,6.3725,6.4377,6.4386,6.4395,0,0,0,0,0,0,6.2846,6.2891,6.3265,6.3094,6.314,6.3212,6.3316,6.3324,6.339,6.3477,6.3488,6.3397,6.3568,6.3604,6.3813,6.3927,6.3723,6.3738,6.4367,6.4379,6.439,6.4508,0,0,0,0,0,0,6.2831,6.2887,6.2982,6.3096,6.315,6.3448,6.3323,6.3334,6.3418,6.3408,6.3531,6.3545,6.3565,6.3789,6.383,6.3947,6.3751,6.4357,6.4373,6.4387,6.4494,6.4523,6.4547,0,0,0,0,0,6.2813,6.3007,6.2987,6.3032,6.3269,6.3455,6.3485,6.3504,6.3428,6.3523,6.3578,6.3541,6.3909,6.3811,6.3856,6.398,6.435,6.4368,6.4385,6.4483,6.4517,6.4546,0,0,0,0,0,0,6.2906,6.3022,6.3001,6.3238,6.3336,6.3444,6.3564,6.3541,6.3664,6.3649,6.3668,6.3697,6.3909,6.3966,6.3855,6.4222,6.4118,6.4146,6.4177,6.421,6.4236,6.4216,6.3765,0,0,0,0,0,6.2954,6.3094,6.3189,6.3388,6.3439,6.3493,6.3575,6.358,6.3684,6.3725,6.3796,6.3898,6.4036,6.4127,6.4259,6.4503,6.4527,6.461,6.4636,6.4657,6.468,6.4808,6.4845,6.4453,6.4452,6.4452,0,0,6.3054,6.3135,6.3223,6.3409,6.3486,6.363,6.3529,6.3687,6.3793,6.375,6.395,6.4005,6.412,6.4346,6.445,6.44,6.4794,6.468,6.4696,6.4707,6.483,6.4867,6.49,6.4465,6.4462,6.446,0,0,6.331,6.3387,6.3559,6.3637,6.3754,6.3789,6.383,6.3941,6.3974,6.4176,6.4144,6.4272,6.4511,6.4592,6.4665,6.4947,6.4916,6.499,6.5126,6.5251,6.5281,6.5309,6.5405,6.544,6.5013,6.5014,6.5014,0,6.342,6.3635,6.3651,6.381,6.3891,6.3857,6.403,6.4106,6.4261,6.4317,6.4259,6.4554,6.463,6.4872,6.4941,6.5003,6.5048,6.4975,6.5276,6.5303,6.5329,6.5421,6.5458,6.5022,6.5021,6.502,6.5019,0,6.3762,6.3912,6.4037,6.4184,6.428,6.4446,6.4485,6.4581,6.4577,6.4617,6.482,6.4909,6.5056,6.5115,6.5115,6.5357,6.5321,6.527,6.5166,6.5374,6.546,6.5496,6.5033,6.503,6.5028,6.5026,0,0,6.4084,6.4234,6.428,6.4344,6.4469,6.4585,6.4748,6.489,6.4969,6.5077,6.5212,6.5413,6.5364,6.5447,6.5456,6.5566,6.5778,6.55,6.5503,6.5545,6.6044,6.6078,6.6119,6.5759,6.5766,6.5771,6.6032,0,6.4346,6.4632,6.4649,6.4907,6.5043,6.5011,6.5152,6.5244,6.5285,6.5406,6.5452,6.5592,6.552,6.5569,6.5677,6.5729,6.5877,6.5711,6.5882,6.5888,6.585,6.6165,6.6204,6.6446,6.6067,6.6073,6.6077,0,6.4692,6.4806,6.5077,6.5178,6.5236,6.5363,6.5492,6.5609,6.5711,6.5733,6.5823,6.5815,6.5981,6.5872,6.6098,6.5985,6.6056,6.6092,6.6102,6.6116,6.5993,6.6184,6.6524,6.6559,6.6131,6.6127,6.6123,0,6.4892,6.5115,6.5305,6.5361,6.5486,6.5575,6.5631,6.5726,6.5808,6.5922,6.5975,6.6107,6.6179,6.6281,6.6308,6.6227,6.6532,6.6427,6.6552,6.6551,6.6616,6.661,6.6968,6.6669,6.6668,6.6667,6.6667,0,6.5182,6.5348,6.5395,6.5512,6.5696,6.5714,6.5895,6.5946,6.603,6.6154,6.6136,6.6253,6.6284,6.6406,6.6429,6.661,6.6644,6.6664,6.6668,6.6664,6.6661,6.6708,6.669,6.6677,6.6675,6.6673,6.6671,0,6.5437,6.5476,6.5679,6.5779,6.5808,6.5938,6.6023,6.6134,6.6172,6.6329,6.6367,6.6427,6.6569,6.6607,6.6779,6.6794,6.7005,6.6996,6.697,6.6969,6.709,6.7076,6.7487,6.754,6.721,6.7213,6.7216,0,6.5617,6.5743,6.5855,6.5936,6.5995,6.6127,6.621,6.6232,6.632,6.6443,6.6538,6.6678,6.6791,6.702,6.7079,6.7209,6.7199,6.7334,6.7218,6.7208,6.7195,6.7185,6.7196,6.7355,6.7358,6.7361,6.7363,0,6.5931,6.5943,6.6063,6.619,6.6289,6.639,6.6487,6.6554,6.659,6.6689,6.6833,6.692,6.7093,6.7231,6.7362,6.7419,6.7396,6.74,6.7434,6.743,6.7408,6.7416,6.7025,6.7389,6.7387,6.7385,6.7384,6.7382,6.6151,6.626,6.6354,6.6487,6.6562,6.6651,6.6759,6.6808,6.6929,6.707,6.7076,6.7232,6.7327,6.75,6.7564,6.7685,6.7644,6.7697,6.7709,6.772,6.7728,6.7392,6.771,6.7709,6.7708,6.7708,6.7707,0,6.646,6.6518,6.6641,6.6775,6.6879,6.6848,6.6953,6.7041,6.7178,6.7269,6.7379,6.7542,6.7675,6.7743,6.7874,6.7958,6.7951,6.7991,6.7983,6.7996,6.776,6.7714,6.7994,6.7994,6.7994,6.7994,6.7994,6.7994,6.6633,6.6813,6.6836,6.7052,6.7109,6.726,6.7321,6.7403,6.7474,6.7657,6.7767,6.7809,6.789,6.8026,6.8146,6.8162,6.8209,6.8254,6.8265,6.8043,6.8013,6.7985,6.7942,6.8266,6.8266,6.849,6.8492,6.8494]},{"header":{"parameterUnit":"m.s-1","parameterCategory":1,"la1":30.2991,"la2":30.254,"lo1":-89.0895,"lo2":-89.0444,"dy":0.0017,"dx":0.0017,"nx":28,"ny":28,"refTime":"2024-09-27T03:00:00:Z","depth":0,"parameterNumber":3,"parameterNumberName":"V-component_of_WINDS"},"data":[0,0,0,0,0,0,0,0,0,0,0,0,0,0,0,0,0,0,0,0,0,0,0,0,0,0,0,0,0,0,0,0,0,0,0,0,0,0,0,0,0,0,0,0,0,0,0,0,0,0,0,0,0,0,0,0,0,0,3.074,3.074,0,3.0718,3.0718,3.0718,3.0634,3.0633,3.0631,3.0629,3.0606,3.0607,3.0609,0,0,0,0,0,0,0,0,0,0,0,0,0,3.0708,3.0709,3.074,3.074,3.074,3.0718,3.0718,3.0718,3.0635,3.0632,3.063,3.0628,3.0606,3.0607,3.0609,0,0,0,0,0,0,0,0,0,0,0,0,0,3.0708,3.0709,3.074,3.0696,3.0692,3.0718,3.0718,3.0718,3.0635,3.0632,3.063,3.0627,3.0605,3.0607,3.0609,3.0677,0,0,3.0614,3.0615,0,0,0,0,0,0,0,0,3.0708,3.0709,3.0703,3.0699,3.0694,3.0676,3.0698,3.0704,3.0636,3.0657,3.0629,3.0625,3.0632,3.0631,3.0633,3.0676,3.0675,3.0614,3.0616,3.0616,3.0617,0,0,0,0,0,0,0,3.0708,3.0709,3.0732,3.0703,3.0698,3.0676,3.0673,3.0699,3.0661,3.0655,3.0649,3.0647,3.0629,3.0632,3.0632,3.0675,3.0614,3.0616,3.0617,3.0618,3.0768,3.0771,0,0,0,0,0,0,3.0714,3.071,3.0732,3.0731,3.0694,3.0679,3.0675,3.0685,3.066,3.0654,3.065,3.0643,3.063,3.063,3.0631,3.0707,3.0616,3.0618,3.0619,3.0765,3.0769,3.0772,0,0,0,0,0,0,3.0714,3.0717,3.0733,3.0719,3.0719,3.0683,3.0694,3.0686,3.0689,3.0656,3.0649,3.066,3.0628,3.0629,3.0665,3.0705,3.0619,3.062,3.0762,3.0766,3.077,3.0861,0,0,0,0,0,0,3.0713,3.0718,3.0744,3.072,3.072,3.0769,3.0696,3.0688,3.0692,3.0684,3.0664,3.0658,3.0626,3.0663,3.0667,3.0706,3.0622,3.0758,3.0764,3.0769,3.0855,3.0868,3.088,0,0,0,0,0,3.0713,3.0771,3.0746,3.0749,3.0753,3.0772,3.0772,3.0734,3.0696,3.0721,3.07,3.0658,3.07,3.0668,3.0672,3.0712,3.0755,3.0762,3.0769,3.0849,3.0866,3.088,0,0,0,0,0,0,3.0802,3.0768,3.0739,3.0792,3.0785,3.0758,3.0789,3.0753,3.0757,3.075,3.0702,3.0698,3.0741,3.073,3.0694,3.0774,3.0721,3.0728,3.078,3.0796,3.0809,3.081,3.0623,0,0,0,0,0,3.0828,3.0847,3.0815,3.0865,3.0863,3.0827,3.0833,3.0804,3.0796,3.0793,3.0774,3.0767,3.0777,3.0786,3.0795,3.0852,3.0845,3.0881,3.0894,3.0905,3.0912,3.0938,3.0953,3.0794,3.0794,3.0794,0,0,3.0882,3.0865,3.088,3.0882,3.0874,3.0893,3.0825,3.0849,3.0862,3.0796,3.0829,3.0815,3.0804,3.085,3.087,3.0842,3.0954,3.0913,3.0922,3.0923,3.0947,3.0962,3.0975,3.0798,3.0797,3.0797,0,0,3.0989,3.0979,3.1018,3.101,3.0998,3.0972,3.0982,3.0959,3.0947,3.0979,3.0928,3.0943,3.0964,3.0957,3.0956,3.1057,3.1019,3.1061,3.1128,3.1154,3.1167,3.1178,3.1212,3.1225,3.1069,3.1069,3.1069,0,3.1058,3.1086,3.1043,3.1069,3.1071,3.101,3.1048,3.1042,3.1034,3.1035,3.1004,3.1027,3.1015,3.1058,3.1082,3.1084,3.1092,3.1064,3.1169,3.1179,3.1189,3.1221,3.1234,3.1074,3.1073,3.1073,3.1072,0,3.1169,3.1189,3.1222,3.1213,3.1218,3.1251,3.1211,3.1221,3.1191,3.1169,3.12,3.1184,3.1186,3.1194,3.1166,3.1232,3.1215,3.1177,3.1122,3.121,3.1239,3.1251,3.1081,3.108,3.1078,3.1077,0,0,3.1335,3.13,3.1313,3.1307,3.1287,3.1301,3.1329,3.1331,3.1339,3.1334,3.1356,3.1373,3.1336,3.1336,3.1305,3.1328,3.1407,3.1287,3.1286,3.1309,3.1476,3.1505,3.152,3.138,3.1383,3.1384,3.1477,0,3.1436,3.1483,3.1443,3.1497,3.1513,3.1454,3.1478,3.1468,3.1447,3.1457,3.1433,3.1446,3.1398,3.1396,3.1417,3.1393,3.144,3.1386,3.1399,3.14,3.1403,3.1535,3.1566,3.1654,3.1488,3.149,3.1491,0,3.1562,3.156,3.1616,3.1589,3.1594,3.1617,3.1613,3.1624,3.161,3.1593,3.159,3.1552,3.1576,3.1522,3.1553,3.1517,3.1519,3.1508,3.1511,3.151,3.1451,3.1538,3.1682,3.1695,3.1509,3.1508,3.1507,0,3.1675,3.1688,3.1721,3.1718,3.1688,3.1705,3.1693,3.1676,3.1679,3.1676,3.1676,3.1677,3.1677,3.1677,3.1639,3.1603,3.1674,3.1617,3.1659,3.166,3.1677,3.1677,3.1823,3.168,3.168,3.168,3.168,0,3.1792,3.1828,3.1771,3.1792,3.1829,3.1782,3.182,3.1802,3.1787,3.1802,3.1751,3.1766,3.1715,3.1724,3.1694,3.1723,3.1724,3.171,3.1702,3.1714,3.1716,3.1715,3.1708,3.1683,3.1683,3.1682,3.1681,0,3.1926,3.189,3.1922,3.189,3.1882,3.1911,3.1883,3.19,3.1874,3.1894,3.1896,3.1856,3.1864,3.1825,3.1827,3.1807,3.185,3.1832,3.1855,3.1849,3.1893,3.1889,3.2043,3.206,3.1908,3.1909,3.1911,0,3.2003,3.2028,3.1998,3.2004,3.1995,3.2006,3.2007,3.1961,3.1965,3.1949,3.1967,3.1971,3.1971,3.1986,3.1956,3.1956,3.1937,3.1991,3.1937,3.1948,3.1936,3.1935,3.1936,3.2002,3.2004,3.2006,3.2007,0,3.2143,3.2123,3.2127,3.2125,3.2128,3.2124,3.2116,3.2124,3.2074,3.208,3.2087,3.2087,3.2087,3.209,3.2084,3.207,3.203,3.2024,3.2033,3.2047,3.2059,3.2051,3.1885,3.2021,3.202,3.2019,3.2018,3.2017,3.225,3.2268,3.2249,3.2255,3.2244,3.2237,3.2251,3.2226,3.2231,3.2227,3.2199,3.221,3.2192,3.2179,3.2169,3.2176,3.215,3.2165,3.2168,3.2172,3.2179,3.2058,3.2175,3.2175,3.2174,3.2174,3.2173,0,3.2385,3.2369,3.2375,3.2365,3.2369,3.233,3.2318,3.2324,3.2335,3.2321,3.2322,3.2328,3.233,3.23,3.2297,3.2309,3.229,3.231,3.2308,3.2305,3.2203,3.2195,3.2325,3.2325,3.2325,3.2324,3.2324,3.2324,3.2457,3.2486,3.2463,3.2485,3.2468,3.2479,3.2475,3.2468,3.2456,3.2466,3.2467,3.2446,3.2425,3.242,3.242,3.241,3.2411,3.2437,3.2422,3.2327,3.2313,3.2299,3.229,3.2438,3.2438,3.2523,3.2523,3.2524]}]]